User: anonymous   Login
Location: Unspecified
(0.0000°N, 0.0000°E)
Time: 01:44:47
(UTC+01:00)
Language:

Cosmos 1703 - Orbit

View from above orbital plane
View from above orbital plane
View from above satellite
View from above satellite

Ground track
Ground track

The orbit data is extracted from the following two-line orbital elements,

1 16262U 85108A   16340.55096707  .00001068  00000-0  63705-4 0  9992
2 16262  82.4845  80.0814 0010506 216.2203 143.8316 15.10110298689679
Epoch (UTC): 05 December 2016 13:13:23
Eccentricity: 0.0010506
inclination: 82.4845°
perigee height: 528 km
apogee height: 543 km
right ascension of ascending node: 80.0814°
argument of perigee: 216.2203°
revolutions per day: 15.10110298
mean anomaly at epoch: 143.8316°
orbit number at epoch: 68967

The dashed part of the orbit path shows where the satellite is in the earth's shadow,  

DLR